Time,TemperatureF,DewpointF,PressureIn,WindDirection,WindDirectionDegrees,WindSpeedMPH,WindSpeedGustMPH,Humidity,HourlyPrecipIn,Conditions,Clouds,dailyrainin,SoftwareType,DateUTC
2013-03-25 00:02:00,31.0,29.0,-100.00,North,0,0.0,0.0,93,0.00,,,-99.99,,2013-03-25 04:02:00,
2013-03-25 00:13:00,31.0,29.0,-100.00,NNE,20,1.0,2.0,94,0.00,,,-99.99,,2013-03-25 04:13:00,
2013-03-25 00:22:00,31.0,29.0,-100.00,North,350,2.0,2.0,94,0.00,,,-99.99,,2013-03-25 04:22:00,
2013-03-25 00:33:00,31.0,29.0,-100.00,North,350,2.0,2.0,94,0.00,,,-99.99,,2013-03-25 04:33:00,
2013-03-25 00:43:00,31.0,29.0,-100.00,NE,50,1.0,1.0,94,0.00,,,-99.99,,2013-03-25 04:43:00,
2013-03-25 00:52:00,31.0,29.0,-100.00,North,0,2.0,2.0,94,0.00,,,-99.99,,2013-03-25 04:52:00,
2013-03-25 01:03:00,31.0,29.0,-100.00,North,0,2.0,2.0,94,0.00,,,-99.99,,2013-03-25 05:03:00,
2013-03-25 01:12:00,31.0,29.0,-100.00,NE,45,2.0,3.0,94,0.00,,,-99.99,,2013-03-25 05:12:00,
2013-03-25 01:22:00,31.0,29.0,-100.00,NE,45,2.0,3.0,94,0.00,,,-99.99,,2013-03-25 05:22:00,
2013-03-25 01:32:00,31.0,29.0,-100.00,NE,50,1.0,1.0,94,0.00,,,-99.99,,2013-03-25 05:32:00,
2013-03-25 01:42:00,31.0,29.0,-100.00,NNE,20,0.0,1.0,94,0.01,,,-99.99,,2013-03-25 05:42:00,
2013-03-25 01:52:00,31.0,29.0,-100.00,NNE,20,0.0,1.0,94,0.01,,,-99.99,,2013-03-25 05:52:00,
2013-03-25 02:02:00,31.0,29.0,-100.00,NE,55,0.0,0.0,94,0.01,,,-99.99,,2013-03-25 06:02:00,
2013-03-25 02:12:00,31.0,29.0,-100.00,NNE,20,0.0,1.0,94,0.01,,,-99.99,,2013-03-25 06:12:00,
2013-03-25 02:22:00,31.0,29.0,-100.00,NNE,20,0.0,1.0,94,0.01,,,-99.99,,2013-03-25 06:22:00,
2013-03-25 02:32:00,31.0,29.0,-100.00,West,275,1.0,1.0,94,0.05,,,-99.99,,2013-03-25 06:32:00,
2013-03-25 02:42:00,31.0,29.0,-100.00,SW,225,0.0,1.0,94,0.06,,,-99.99,,2013-03-25 06:42:00,
2013-03-25 02:52:00,31.0,29.0,-100.00,SW,225,0.0,1.0,94,0.06,,,-99.99,,2013-03-25 06:52:00,
2013-03-25 03:02:00,31.0,29.0,-100.00,East,80,2.0,3.0,94,0.13,,,-99.99,,2013-03-25 07:02:00,
2013-03-25 03:13:00,31.0,29.0,-100.00,ESE,115,2.0,2.0,94,0.37,,,-99.99,,2013-03-25 07:13:00,
2013-03-25 03:22:00,31.0,29.0,-100.00,ESE,115,2.0,2.0,94,0.37,,,-99.99,,2013-03-25 07:22:00,
2013-03-25 03:32:00,30.0,29.0,-100.00,SE,125,0.0,0.0,94,0.12,,,-99.99,,2013-03-25 07:32:00,
2013-03-25 03:42:00,30.0,29.0,-100.00,East,85,0.0,0.0,94,0.60,,,-99.99,,2013-03-25 07:42:00,
2013-03-25 03:52:00,30.0,29.0,-100.00,East,85,0.0,0.0,94,0.60,,,-99.99,,2013-03-25 07:52:00,
2013-03-25 04:03:00,30.0,29.0,-100.00,East,95,0.0,0.0,94,0.17,,,-99.99,,2013-03-25 08:03:00,
2013-03-25 04:12:00,30.0,29.0,-100.00,ENE,60,0.0,0.0,94,0.03,,,-99.99,,2013-03-25 08:12:00,
2013-03-25 04:23:00,30.0,29.0,-100.00,ENE,60,0.0,0.0,94,0.03,,,-99.99,,2013-03-25 08:23:00,
2013-03-25 04:32:00,30.0,29.0,-100.00,East,100,0.0,0.0,94,0.01,,,-99.99,,2013-03-25 08:32:00,
2013-03-25 04:43:00,30.0,29.0,-100.00,East,90,0.0,0.0,94,0.01,,,-99.99,,2013-03-25 08:43:00,
2013-03-25 04:52:00,30.0,29.0,-100.00,East,95,0.0,0.0,94,0.01,,,-99.99,,2013-03-25 08:52:00,
2013-03-25 05:02:00,30.0,29.0,-100.00,East,95,0.0,0.0,94,0.01,,,-99.99,,2013-03-25 09:02:00,
2013-03-25 05:13:00,30.0,29.0,-100.00,East,90,0.0,0.0,94,0.02,,,-99.99,,2013-03-25 09:13:00,
2013-03-25 05:22:00,30.0,29.0,-100.00,East,90,0.0,0.0,94,0.02,,,-99.99,,2013-03-25 09:22:00,
2013-03-25 05:33:00,30.0,29.0,-100.00,East,90,0.0,0.0,94,0.02,,,-99.99,,2013-03-25 09:33:00,
2013-03-25 05:43:00,30.0,28.0,-100.00,East,90,0.0,0.0,94,0.07,,,-99.99,,2013-03-25 09:43:00,
2013-03-25 05:52:00,30.0,28.0,-100.00,East,90,0.0,0.0,94,0.07,,,-99.99,,2013-03-25 09:52:00,
2013-03-25 06:03:00,30.0,28.0,-100.00,East,90,0.0,0.0,94,0.04,,,-99.99,,2013-03-25 10:03:00,
2013-03-25 06:12:00,30.0,28.0,-100.00,NNE,20,0.0,0.0,94,0.03,,,-99.99,,2013-03-25 10:12:00,
2013-03-25 06:22:00,30.0,28.0,-100.00,NNE,25,0.0,0.0,94,0.07,,,-99.99,,2013-03-25 10:22:00,
2013-03-25 06:33:00,30.0,28.0,-100.00,NNE,25,0.0,0.0,94,0.07,,,-99.99,,2013-03-25 10:33:00,
2013-03-25 06:42:00,30.0,28.0,-100.00,North,5,0.0,0.0,94,0.03,,,-99.99,,2013-03-25 10:42:00,
2013-03-25 06:53:00,30.0,28.0,-100.00,North,5,0.0,0.0,94,0.03,,,-99.99,,2013-03-25 10:53:00,
2013-03-25 07:03:00,30.0,28.0,-100.00,North,10,0.0,0.0,94,0.01,,,-99.99,,2013-03-25 11:03:00,
2013-03-25 07:12:00,30.0,29.0,-100.00,NE,35,0.0,0.0,95,0.02,,,-99.99,,2013-03-25 11:12:00,
2013-03-25 07:23:00,30.0,29.0,-100.00,NE,55,0.0,0.0,95,0.03,,,-99.99,,2013-03-25 11:23:00,
2013-03-25 07:32:00,30.0,29.0,-100.00,NE,55,0.0,0.0,95,0.03,,,-99.99,,2013-03-25 11:32:00,
2013-03-25 07:42:00,30.0,29.0,-100.00,East,80,0.0,0.0,95,0.01,,,-99.99,,2013-03-25 11:42:00,
2013-03-25 07:52:00,30.0,29.0,-100.00,East,80,0.0,0.0,95,0.01,,,-99.99,,2013-03-25 11:52:00,
2013-03-25 08:03:00,30.0,29.0,-100.00,East,80,0.0,0.0,95,0.02,,,-99.99,,2013-03-25 12:03:00,
2013-03-25 08:13:00,30.0,29.0,-100.00,East,80,0.0,0.0,95,0.01,,,-99.99,,2013-03-25 12:13:00,
2013-03-25 08:23:00,30.0,29.0,-100.00,East,80,0.0,0.0,95,0.01,,,-99.99,,2013-03-25 12:23:00,
2013-03-25 08:32:00,30.0,29.0,-100.00,ENE,70,0.0,0.0,95,0.01,,,-99.99,,2013-03-25 12:32:00,
2013-03-25 08:42:00,30.0,29.0,-100.00,East,95,0.0,0.0,95,0.01,,,-99.99,,2013-03-25 12:42:00,
2013-03-25 08:53:00,30.0,29.0,-100.00,East,95,0.0,0.0,95,0.01,,,-99.99,,2013-03-25 12:53:00,
2013-03-25 09:03:00,31.0,29.0,-100.00,East,100,0.0,0.0,95,0.01,,,-99.99,,2013-03-25 13:03:00,
2013-03-25 09:13:00,31.0,30.0,-100.00,NNE,30,0.0,0.0,95,0.01,,,-99.99,,2013-03-25 13:13:00,
2013-03-25 09:22:00,31.0,30.0,-100.00,NE,50,0.0,0.0,95,0.01,,,-99.99,,2013-03-25 13:22:00,
2013-03-25 09:32:00,31.0,30.0,-100.00,NE,50,0.0,0.0,95,0.01,,,-99.99,,2013-03-25 13:32:00,
2013-03-25 09:43:00,32.0,30.0,-100.00,SE,145,0.0,0.0,95,0.01,,,-99.99,,2013-03-25 13:43:00,
2013-03-25 09:52:00,32.0,30.0,-100.00,SE,145,0.0,0.0,95,0.01,,,-99.99,,2013-03-25 13:52:00,
2013-03-25 10:03:00,32.0,30.0,-100.00,ESE,110,0.0,0.0,95,0.01,,,-99.99,,2013-03-25 14:03:00,
2013-03-25 10:12:00,32.0,30.0,-100.00,SE,135,0.0,0.0,95,0.02,,,-99.99,,2013-03-25 14:12:00,
2013-03-25 10:22:00,32.0,31.0,-100.00,SE,145,0.0,0.0,95,0.01,,,-99.99,,2013-03-25 14:22:00,
2013-03-25 10:32:00,32.0,31.0,-100.00,SE,145,0.0,0.0,95,0.01,,,-99.99,,2013-03-25 14:32:00,
2013-03-25 10:42:00,33.0,31.0,-100.00,ESE,115,0.0,0.0,95,0.01,,,-99.99,,2013-03-25 14:42:00,
2013-03-25 10:52:00,32.0,31.0,-100.00,SE,125,0.0,0.0,95,0.01,,,-99.99,,2013-03-25 14:52:00,
2013-03-25 11:03:00,32.0,31.0,-100.00,SE,125,0.0,0.0,95,0.01,,,-99.99,,2013-03-25 15:03:00,
2013-03-25 11:13:00,33.0,32.0,-100.00,ENE,65,0.0,0.0,95,0.01,,,-99.99,,2013-03-25 15:13:00,
2013-03-25 11:23:00,33.0,31.0,-100.00,East,90,0.0,0.0,95,0.01,,,-99.99,,2013-03-25 15:23:00,
2013-03-25 11:33:00,33.0,31.0,-100.00,East,90,0.0,0.0,95,0.01,,,-99.99,,2013-03-25 15:33:00,
2013-03-25 11:43:00,33.0,32.0,-100.00,ENE,70,0.0,0.0,95,0.00,,,-99.99,,2013-03-25 15:43:00,
2013-03-25 11:53:00,33.0,32.0,-100.00,East,90,0.0,0.0,95,0.00,,,-99.99,,2013-03-25 15:53:00,
2013-03-25 12:03:00,33.0,32.0,-100.00,East,90,0.0,0.0,95,0.00,,,-99.99,,2013-03-25 16:03:00,
2013-03-25 12:12:00,34.0,32.0,-100.00,East,100,0.0,0.0,95,0.00,,,-99.99,,2013-03-25 16:12:00,
2013-03-25 12:23:00,34.0,32.0,-100.00,East,100,0.0,0.0,95,0.00,,,-99.99,,2013-03-25 16:23:00,
2013-03-25 12:33:00,34.0,32.0,-100.00,SE,130,2.0,3.0,95,0.00,,,-99.99,,2013-03-25 16:33:00,
2013-03-25 12:43:00,34.0,33.0,-100.00,East,100,1.0,2.0,95,0.00,,,-99.99,,2013-03-25 16:43:00,
2013-03-25 12:52:00,34.0,33.0,-100.00,East,100,1.0,2.0,95,0.00,,,-99.99,,2013-03-25 16:52:00,
2013-03-25 13:03:00,34.0,33.0,-100.00,ENE,70,1.0,2.0,95,0.01,,,-99.99,,2013-03-25 17:03:00,
2013-03-25 13:13:00,34.0,33.0,-100.00,SE,135,2.0,2.0,95,0.00,,,-99.99,,2013-03-25 17:13:00,
2013-03-25 13:23:00,36.0,35.0,-100.00,SSW,200,0.0,0.0,94,0.01,,,-99.99,,2013-03-25 17:23:00,
2013-03-25 13:33:00,36.0,35.0,-100.00,SSW,200,0.0,0.0,94,0.01,,,-99.99,,2013-03-25 17:33:00,
2013-03-25 13:43:00,37.0,35.0,-100.00,ESE,110,1.0,1.0,92,0.00,,,-99.99,,2013-03-25 17:43:00,
2013-03-25 13:52:00,38.0,36.0,-100.00,NNE,30,0.0,0.0,91,0.00,,,-99.99,,2013-03-25 17:52:00,
2013-03-25 14:04:00,38.0,36.0,-100.00,NNE,30,0.0,0.0,91,0.00,,,-99.99,,2013-03-25 18:04:00,
2013-03-25 14:13:00,39.0,35.0,-100.00,NE,55,1.0,2.0,86,0.00,,,-99.99,,2013-03-25 18:13:00,
2013-03-25 14:23:00,39.0,35.0,-100.00,NE,55,1.0,2.0,86,0.00,,,-99.99,,2013-03-25 18:23:00,
2013-03-25 14:33:00,39.0,34.0,-100.00,NNE,20,0.0,0.0,82,0.00,,,-99.99,,2013-03-25 18:33:00,
2013-03-25 14:43:00,38.0,33.0,-100.00,NNE,20,0.0,1.0,81,0.00,,,-99.99,,2013-03-25 18:43:00,
2013-03-25 14:52:00,38.0,33.0,-100.00,NNE,20,0.0,1.0,81,0.00,,,-99.99,,2013-03-25 18:52:00,
2013-03-25 15:03:00,38.0,33.0,-100.00,NNE,20,0.0,1.0,82,0.00,,,-99.99,,2013-03-25 19:03:00,
2013-03-25 15:13:00,38.0,32.0,-100.00,NNE,25,0.0,1.0,79,0.00,,,-99.99,,2013-03-25 19:13:00,
2013-03-25 15:23:00,38.0,32.0,-100.00,NNE,25,0.0,1.0,79,0.00,,,-99.99,,2013-03-25 19:23:00,
2013-03-25 15:33:00,38.0,32.0,-100.00,NE,40,1.0,1.0,79,0.00,,,-99.99,,2013-03-25 19:33:00,
2013-03-25 15:43:00,38.0,31.0,-100.00,ENE,70,0.0,1.0,78,0.00,,,-99.99,,2013-03-25 19:43:00,
2013-03-25 15:52:00,37.0,30.0,-100.00,NE,45,1.0,1.0,78,0.01,,,-99.99,,2013-03-25 19:52:00,
2013-03-25 16:02:00,37.0,30.0,-100.00,NE,45,1.0,1.0,78,0.01,,,-99.99,,2013-03-25 20:02:00,
2013-03-25 16:12:00,37.0,31.0,-100.00,NNE,30,0.0,0.0,79,0.01,,,-99.99,,2013-03-25 20:12:00,
2013-03-25 16:22:00,37.0,31.0,-100.00,NNE,30,0.0,0.0,79,0.01,,,-99.99,,2013-03-25 20:22:00,
2013-03-25 16:32:00,36.0,31.0,-100.00,ENE,75,0.0,0.0,81,0.01,,,-99.99,,2013-03-25 20:32:00,
2013-03-25 16:42:00,35.0,30.0,-100.00,SE,135,2.0,2.0,82,0.01,,,-99.99,,2013-03-25 20:42:00,
2013-03-25 16:52:00,35.0,30.0,-100.00,SE,135,2.0,2.0,82,0.01,,,-99.99,,2013-03-25 20:52:00,
2013-03-25 17:03:00,35.0,31.0,-100.00,SE,140,0.0,0.0,85,0.00,,,-99.99,,2013-03-25 21:03:00,
2013-03-25 17:13:00,35.0,31.0,-100.00,ESE,120,1.0,2.0,86,0.00,,,-99.99,,2013-03-25 21:13:00,
2013-03-25 17:22:00,35.0,32.0,-100.00,SE,125,1.0,2.0,87,0.00,,,-99.99,,2013-03-25 21:22:00,
2013-03-25 17:33:00,35.0,32.0,-100.00,SE,125,1.0,2.0,87,0.00,,,-99.99,,2013-03-25 21:33:00,
2013-03-25 17:43:00,36.0,32.0,-100.00,East,90,0.0,0.0,88,0.00,,,-99.99,,2013-03-25 21:43:00,
2013-03-25 17:52:00,35.0,32.0,-100.00,ENE,70,1.0,1.0,88,0.01,,,-99.99,,2013-03-25 21:52:00,
2013-03-25 18:03:00,35.0,32.0,-100.00,ENE,70,1.0,1.0,88,0.01,,,-99.99,,2013-03-25 22:03:00,
2013-03-25 18:13:00,35.0,32.0,-100.00,SE,140,0.0,0.0,89,0.00,,,-99.99,,2013-03-25 22:13:00,
2013-03-25 18:23:00,35.0,32.0,-100.00,NE,55,0.0,0.0,90,0.01,,,-99.99,,2013-03-25 22:23:00,
2013-03-25 18:33:00,35.0,32.0,-100.00,NE,55,0.0,0.0,90,0.01,,,-99.99,,2013-03-25 22:33:00,
2013-03-25 18:42:00,35.0,32.0,-100.00,NE,50,1.0,1.0,91,0.02,,,-99.99,,2013-03-25 22:42:00,
2013-03-25 18:52:00,35.0,32.0,-100.00,NE,50,1.0,1.0,91,0.02,,,-99.99,,2013-03-25 22:52:00,
2013-03-25 19:03:00,35.0,32.0,-100.00,NNE,20,0.0,0.0,91,0.01,,,-99.99,,2013-03-25 23:03:00,
2013-03-25 19:12:00,34.0,32.0,-100.00,NNE,25,0.0,0.0,92,0.01,,,-99.99,,2013-03-25 23:12:00,
2013-03-25 19:23:00,34.0,32.0,-100.00,NNE,30,0.0,0.0,92,0.01,,,-99.99,,2013-03-25 23:23:00,
2013-03-25 19:32:00,34.0,32.0,-100.00,NNE,30,0.0,0.0,92,0.01,,,-99.99,,2013-03-25 23:32:00,
2013-03-25 19:43:00,34.0,32.0,-100.00,NNW,345,0.0,0.0,92,0.00,,,-99.99,,2013-03-25 23:43:00,
2013-03-25 19:52:00,33.0,32.0,-100.00,North,0,0.0,0.0,93,0.01,,,-99.99,,2013-03-25 23:52:00,
2013-03-25 20:02:00,33.0,32.0,-100.00,North,0,0.0,0.0,93,0.01,,,-99.99,,2013-03-26 00:02:00,
2013-03-25 20:12:00,33.0,31.0,-100.00,West,260,0.0,1.0,93,0.01,,,-99.99,,2013-03-26 00:12:00,
2013-03-25 20:22:00,33.0,31.0,-100.00,West,260,0.0,1.0,93,0.01,,,-99.99,,2013-03-26 00:22:00,
2013-03-25 20:32:00,33.0,31.0,-100.00,NNE,30,0.0,0.0,93,0.00,,,-99.99,,2013-03-26 00:32:00,
2013-03-25 20:42:00,33.0,31.0,-100.00,SW,220,0.0,0.0,93,0.01,,,-99.99,,2013-03-26 00:42:00,
2013-03-25 20:52:00,33.0,31.0,-100.00,WNW,290,0.0,0.0,93,0.01,,,-99.99,,2013-03-26 00:52:00,
2013-03-25 21:02:00,33.0,31.0,-100.00,WNW,290,0.0,0.0,93,0.01,,,-99.99,,2013-03-26 01:02:00,
2013-03-25 21:12:00,33.0,31.0,-100.00,SW,230,0.0,0.0,93,0.00,,,-99.99,,2013-03-26 01:12:00,
2013-03-25 21:22:00,33.0,31.0,-100.00,SW,230,0.0,0.0,93,0.00,,,-99.99,,2013-03-26 01:22:00,
2013-03-25 21:32:00,33.0,31.0,-100.00,South,185,0.0,0.0,93,0.01,,,-99.99,,2013-03-26 01:32:00,
2013-03-25 21:42:00,33.0,32.0,-100.00,West,270,1.0,2.0,94,0.00,,,-99.99,,2013-03-26 01:42:00,
2013-03-25 21:52:00,33.0,32.0,-100.00,West,270,1.0,2.0,94,0.00,,,-99.99,,2013-03-26 01:52:00,
2013-03-25 22:02:00,33.0,32.0,-100.00,SW,220,0.0,0.0,94,0.00,,,-99.99,,2013-03-26 02:02:00,
2013-03-25 22:12:00,33.0,32.0,-100.00,WSW,250,0.0,1.0,94,0.00,,,-99.99,,2013-03-26 02:12:00,
2013-03-25 22:22:00,33.0,32.0,-100.00,WSW,250,0.0,1.0,94,0.00,,,-99.99,,2013-03-26 02:22:00,
2013-03-25 22:32:00,33.0,32.0,-100.00,South,180,0.0,1.0,94,0.00,,,-99.99,,2013-03-26 02:32:00,
2013-03-25 22:42:00,34.0,32.0,-100.00,SW,230,4.0,8.0,94,0.00,,,-99.99,,2013-03-26 02:42:00,
2013-03-25 22:52:00,34.0,32.0,-100.00,SW,230,4.0,8.0,94,0.00,,,-99.99,,2013-03-26 02:52:00,
2013-03-25 23:02:00,33.0,32.0,-100.00,SW,230,4.0,7.0,94,0.00,,,-99.99,,2013-03-26 03:02:00,
2013-03-25 23:12:00,34.0,32.0,-100.00,West,265,5.0,7.0,94,0.00,,,-99.99,,2013-03-26 03:12:00,
2013-03-25 23:22:00,34.0,32.0,-100.00,West,265,5.0,7.0,94,0.00,,,-99.99,,2013-03-26 03:22:00,
2013-03-25 23:34:00,34.0,32.0,-100.00,SSW,195,1.0,2.0,93,0.00,,,-99.99,,2013-03-26 03:34:00,
2013-03-25 23:42:00,33.0,31.0,-100.00,SW,235,1.0,2.0,93,0.01,,,-99.99,,2013-03-26 03:42:00,
2013-03-25 23:52:00,33.0,31.0,-100.00,SW,235,1.0,2.0,93,0.01,,,-99.99,,2013-03-26 03:52:00,